Location: Noverd
(38.0910°N, 121.6877°W)
Time: 00:40:55
(UTC+00:00)

MOS 1 Rocket - Pass Details

Date: 13 February 2026
Orbit: 609 x 814 km, 97.4° (Epoch: 10 March)

Event Time Altitude Azimuth Distance (km) Brightness Sun altitude
Rises 13:53:42 0° 19° (NNE) 2,906 6.7 -13.4°
Reaches altitude 10° 13:55:56 10° 26° (NNE) 2,013 5.9 -13.0°
Maximum altitude 14:00:07 44° 99° (E) 898 4.5 -12.2°
Drops below altitude 10° 14:04:29 10° 171° (S) 2,096 6.0 -11.3°
Sets 14:06:51 0° 178° (S) 3,040 6.7 -10.8°
